This is the latest recevied weather packets stored in our database for station/object KI6SYE. If no packets are shown the sender has not sent any weather packets the latest 10 day(s).
| Time | Temp. | Humidity | Pressure | Rain* | Wind** | Luminosity | Snow |
|---|---|---|---|---|---|---|---|
| 1788658416 | 23.33° C | 83% | 1011.8 hPa | 0 mm | - | 52 W/m² | - |
| 1788658111 | 23.33° C | 84% | 1012.1 hPa | 0 mm | - | 55 W/m² | - |
| 1788657807 | 22.78° C | 84% | 1012 hPa | 0 mm | - | 60 W/m² | - |
| 1788657501 | 22.78° C | 85% | 1011.8 hPa | 0 mm | - | 68 W/m² | - |
| 1788657196 | 23.33° C | 84% | 1011.8 hPa | 0 mm | - | 48 W/m² | - |
| 1788656892 | 23.33° C | 83% | 1011.9 hPa | 0 mm | - | 89 W/m² | - |
| 1788656588 | 23.89° C | 82% | 1012 hPa | 0 mm | - | 75 W/m² | - |
| 1788656283 | 23.89° C | 82% | 1012 hPa | 0 mm | - | 129 W/m² | - |
| 1788655982 | 23.89° C | 81% | 1012 hPa | 0 mm | - | 139 W/m² | - |
| 1788655681 | 23.33° C | 82% | 1011.9 hPa | 0 mm | - | 119 W/m² | - |
| 1788655376 | 23.33° C | 82% | 1011.8 hPa | 0 mm | - | 93 W/m² | - |
| 1788655075 | 23.33° C | 82% | 1012 hPa | 0 mm | - | 104 W/m² | - |
| 1788654771 | 23.89° C | 82% | 1011.9 hPa | 0 mm | - | 104 W/m² | - |
| 1788654466 | 23.89° C | 80% | 1011.8 hPa | 0 mm | - | 98 W/m² | - |
| 1788654161 | 23.89° C | 80% | 1011.7 hPa | 0 mm | - | 108 W/m² | - |
| 1788653857 | 23.33° C | 81% | 1011.9 hPa | 0 mm | - | 113 W/m² | - |
| 1788653551 | 23.33° C | 81% | 1011.9 hPa | 0 mm | - | 124 W/m² | - |
| 1788653246 | 23.89° C | 80% | 1011.7 hPa | 0 mm | - | 125 W/m² | - |
| 1788652941 | 23.89° C | 80% | 1011.8 hPa | 0 mm | - | 132 W/m² | - |
| 1788652641 | 23.89° C | 79% | 1011.9 hPa | 0 mm | - | 152 W/m² | - |
| 1788652335 | 23.89° C | 80% | 1011.9 hPa | 0 mm | - | 167 W/m² | - |
| 1788652031 | 23.89° C | 78% | 1011.8 hPa | 0 mm | - | 182 W/m² | - |
| 1788651726 | 23.89° C | 77% | 1012 hPa | 0 mm | - | 226 W/m² | - |
| 1788651421 | 23.89° C | 79% | 1011.8 hPa | 0 mm | - | 218 W/m² | - |
| 1788651121 | 24.44° C | 76% | 1012.1 hPa | 0 mm | - | 249 W/m² | - |
* Rain latest hour (hover to see other rain measurements)
** Current wind speed in m/s (hover to see current wind gust speed)